Weather in Arctic Village

United States     68°07′32″N   145°32′41″W
temp.,
°C
wind,
m/s
gust,
m/s
humid.,
%
clouds,
%
prec.,
mm/h
press.,
hPa
HPBL,
m
18 september, sat
sat1801:00−1sse118048 0.0 100110
04:00−1se1189100 0.1 100110
07:000se2292100 0.1 1001143
10:00+1se2389100 0.4 1000322
13:00+2sse357697 0.3 1000809
16:000sse4587100 0.9 1001564
19:000sw239295 1.1 1001271
22:00−2w119097 1.7 1002116
19 september, sun
sun1901:00−4sw019253 0.0 100336
04:00−4sse239566 0.1 1003136
07:00−5sse3592100 0.1 1002318
10:00−3s4584100 0.1 1002522
13:00−2s5685100 0.1 1001670
16:00−1s4896100 0.6 1000597
19:00−1s5896100 0.3 1000509
22:00−1s579687 0.5 1000380
20 september, mon
mon2001:00−6nw349168 0.4 1003201
04:00−8nw238249 0.5 1006145
07:00−10nnw33825 0.0 100882
10:00−8nnw23651 0.0 1009203
13:00−5nnw22510 0.0 1008447
16:00−4nnw22490 0.0 1008637
19:00−6nnw22710 0.0 100929
22:00−10nnw33781 0.0 101163
21 september, tue
tue2101:00−11nnw34780 0.0 101177
04:00−11nnw337837 0.0 101173
07:00−12nnw337916 0.0 101260
10:00−9nnw236771 0.0 1012166
13:00−6nnw235764 0.0 1011400
16:00−5nw2354100 0.0 1011582
19:00−7nnw227597 0.0 101235
22:00−10nnw337999 0.0 101453
22 september, wed
wed2201:00−10nnw2379100 0.0 101651
04:00−11nnw228266 0.0 101734
07:00−11nnw22845 0.0 101827
10:00−9nnw227317 0.0 1018129
13:00−6nw116297 0.0 1019396
16:00−5w015713 0.0 1018630
19:00−7ne00746 0.0 101910
22:00−10n22845 0.0 102123